星链-31973 (STARLINK-31973 )

导读 | 豆包AI

STARLINK-31973是美国太空探索技术公司星链星座的一员,于2024年6月1日发射入轨,属于星链低轨互联网卫星组网的新增卫星。星链系统旨在为全球提供高速低延迟互联网服务,该卫星加入后进一步完善了星座覆盖能力,推进了星链星座全域组网部署进程。

基本信息
目录编号:
59943
目录名称:
STARLINK-31973
国际标识:
2024-106X
轨道中心:
EARTH
卫星名称:
星链-31973
卫星全名:
星链-31973 (STARLINK-31973 )
卫星状态:
在轨 (已飞行652 天)
发射日期:
2024-06-01 UTC
国别 :
美国 (US)
星等 :
--
轨道信息
数据来源 国际轨道数据
星历时间: 2026-03-15T06:35:37+0800
18小时前
查看轨道信息
半长轴: 6861.163km
偏心率: 0.0001227
轨道倾角: 43.000°
近地点辐角 269.370°
升交点赤经 303.071°
平近点角 90.701°
近地点: 482.184km
远地点: 483.868km
周期: 94.266分钟
每日圈数: 15.275878
详细信息
固有亮度:
5
最大亮度:
1.5
卫星平台:
Starlink v2.0 mini
覆盖范围:
全球
运营商:
太空探索技术公司
运营商所在国:
美国
制造商(研发单位):
太空探索技术公司
制造商所在国:
美国
使用方式:
暂无
卫星简介
星链(Starlink)计划是由太空探索技术公司(SpaceX)提出的一个巨型低轨卫星互联网星座项目,计划在2019年至2024年间在太空搭建由约1.2万颗卫星组成的“星链”网络,其中1584颗将部署在地球上空550千米处的近地轨道,并从2020年开始工作。该卫星仍在工作。
2D轨道图
3D轨道图
轨道高度分析图
轨道倾角分析图
轨道综合分析图
查看轨道综合分析图